Time,TemperatureF,DewpointF,PressureIn,WindDirection,WindDirectionDegrees,WindSpeedMPH,WindSpeedGustMPH,Humidity,HourlyPrecipIn,Conditions,Clouds,dailyrainin,SoftwareType,DateUTC
2013-03-22 00:03:00,28.0,28.0,-100.00,NW,320,10.0,19.0,99,-99.99,,,-99.99,,2013-03-22 04:03:00,
2013-03-22 00:12:00,28.0,28.0,-100.00,NW,325,12.0,21.0,99,-99.99,,,-99.99,,2013-03-22 04:12:00,
2013-03-22 00:23:00,28.0,28.0,-100.00,NW,310,8.0,17.0,99,-99.99,,,-99.99,,2013-03-22 04:23:00,
2013-03-22 00:32:00,28.0,28.0,-100.00,NW,320,11.0,18.0,99,-99.99,,,-99.99,,2013-03-22 04:32:00,
2013-03-22 00:43:00,27.0,27.0,-100.00,NNW,330,10.0,21.0,99,-99.99,,,-99.99,,2013-03-22 04:43:00,
2013-03-22 00:52:00,27.0,27.0,-100.00,NW,320,11.0,15.0,99,-99.99,,,-99.99,,2013-03-22 04:52:00,
2013-03-22 01:02:00,27.0,27.0,-100.00,NW,310,12.0,20.0,99,-99.99,,,-99.99,,2013-03-22 05:02:00,
2013-03-22 01:12:00,27.0,27.0,-100.00,NW,305,12.0,17.0,99,-99.99,,,-99.99,,2013-03-22 05:12:00,
2013-03-22 01:22:00,27.0,27.0,-100.00,NNW,340,14.0,21.0,99,-99.99,,,-99.99,,2013-03-22 05:22:00,
2013-03-22 01:32:00,26.0,26.0,-100.00,North,0,8.0,17.0,99,-99.99,,,-99.99,,2013-03-22 05:32:00,
2013-03-22 01:42:00,25.0,25.0,-100.00,NNW,330,9.0,20.0,99,-99.99,,,-99.99,,2013-03-22 05:42:00,
2013-03-22 01:52:00,25.0,25.0,-100.00,North,0,10.0,17.0,99,-99.99,,,-99.99,,2013-03-22 05:52:00,
2013-03-22 02:02:00,25.0,25.0,-100.00,NNW,345,8.0,17.0,99,-99.99,,,-99.99,,2013-03-22 06:02:00,
2013-03-22 02:13:00,24.0,24.0,-100.00,NW,325,6.0,15.0,99,-99.99,,,-99.99,,2013-03-22 06:13:00,
2013-03-22 02:22:00,25.0,25.0,-100.00,NNW,330,6.0,11.0,99,-99.99,,,-99.99,,2013-03-22 06:22:00,
2013-03-22 02:32:00,26.0,26.0,-100.00,NNW,330,7.0,15.0,99,-99.99,,,-99.99,,2013-03-22 06:32:00,
2013-03-22 02:42:00,25.0,25.0,-100.00,NW,320,11.0,17.0,99,-99.99,,,-99.99,,2013-03-22 06:42:00,
2013-03-22 02:52:00,25.0,25.0,-100.00,NNW,330,9.0,17.0,99,-99.99,,,-99.99,,2013-03-22 06:52:00,
2013-03-22 03:03:00,25.0,25.0,-100.00,NW,305,8.0,16.0,99,-99.99,,,-99.99,,2013-03-22 07:03:00,
2013-03-22 03:12:00,26.0,26.0,-100.00,WNW,300,9.0,16.0,99,-99.99,,,-99.99,,2013-03-22 07:12:00,
2013-03-22 03:22:00,26.0,26.0,-100.00,NW,325,14.0,23.0,99,-99.99,,,-99.99,,2013-03-22 07:22:00,
2013-03-22 03:32:00,26.0,26.0,-100.00,WNW,300,9.0,22.0,99,-99.99,,,-99.99,,2013-03-22 07:32:00,
2013-03-22 03:42:00,26.0,26.0,-100.00,NW,315,7.0,17.0,99,-99.99,,,-99.99,,2013-03-22 07:42:00,
2013-03-22 03:52:00,26.0,26.0,-100.00,NW,305,6.0,15.0,99,-99.99,,,-99.99,,2013-03-22 07:52:00,
2013-03-22 04:03:00,26.0,26.0,-100.00,NNW,345,9.0,17.0,99,-99.99,,,-99.99,,2013-03-22 08:03:00,
2013-03-22 04:13:00,26.0,26.0,-100.00,NNW,345,9.0,17.0,99,-99.99,,,-99.99,,2013-03-22 08:13:00,
2013-03-22 04:22:00,25.0,25.0,-100.00,NW,315,11.0,16.0,99,-99.99,,,-99.99,,2013-03-22 08:22:00,
2013-03-22 04:32:00,26.0,26.0,-100.00,NW,315,11.0,15.0,99,-99.99,,,-99.99,,2013-03-22 08:32:00,
2013-03-22 04:42:00,26.0,26.0,-100.00,NW,315,11.0,15.0,99,-99.99,,,-99.99,,2013-03-22 08:42:00,
2013-03-22 04:52:00,25.0,25.0,-100.00,NNW,330,11.0,17.0,99,-99.99,,,-99.99,,2013-03-22 08:52:00,
2013-03-22 05:02:00,25.0,25.0,-100.00,NNW,330,10.0,17.0,99,-99.99,,,-99.99,,2013-03-22 09:02:00,
2013-03-22 05:12:00,25.0,25.0,-100.00,NNW,330,10.0,17.0,99,-99.99,,,-99.99,,2013-03-22 09:12:00,
2013-03-22 05:22:00,25.0,25.0,-100.00,NNW,330,9.0,15.0,99,-99.99,,,-99.99,,2013-03-22 09:22:00,
2013-03-22 05:32:00,25.0,25.0,-100.00,NNW,345,7.0,12.0,99,-99.99,,,-99.99,,2013-03-22 09:32:00,
2013-03-22 05:42:00,26.0,26.0,-100.00,NNW,335,8.0,13.0,99,-99.99,,,-99.99,,2013-03-22 09:42:00,
2013-03-22 05:53:00,26.0,26.0,-100.00,NW,315,11.0,17.0,99,-99.99,,,-99.99,,2013-03-22 09:53:00,
2013-03-22 06:04:00,26.0,26.0,-100.00,NNW,330,10.0,16.0,99,-99.99,,,-99.99,,2013-03-22 10:04:00,
2013-03-22 06:12:00,26.0,26.0,-100.00,NNW,330,9.0,17.0,99,-99.99,,,-99.99,,2013-03-22 10:12:00,
2013-03-22 06:22:00,26.0,26.0,-100.00,NNW,345,7.0,12.0,99,-99.99,,,-99.99,,2013-03-22 10:22:00,
2013-03-22 06:33:00,26.0,26.0,-100.00,NNW,335,8.0,19.0,99,-99.99,,,-99.99,,2013-03-22 10:33:00,
2013-03-22 06:42:00,26.0,26.0,-100.00,NNW,335,8.0,19.0,99,-99.99,,,-99.99,,2013-03-22 10:42:00,
2013-03-22 06:52:00,26.0,26.0,-100.00,NNW,345,6.0,12.0,99,-99.99,,,-99.99,,2013-03-22 10:52:00,
2013-03-22 07:03:00,26.0,26.0,-100.00,NNW,335,7.0,17.0,99,-99.99,,,-99.99,,2013-03-22 11:03:00,
2013-03-22 07:12:00,26.0,26.0,-100.00,NW,325,8.0,13.0,99,-99.99,,,-99.99,,2013-03-22 11:12:00,
2013-03-22 07:22:00,25.0,25.0,-100.00,NNW,335,7.0,15.0,99,-99.99,,,-99.99,,2013-03-22 11:22:00,
2013-03-22 07:33:00,26.0,26.0,-100.00,NNW,335,6.0,14.0,99,-99.99,,,-99.99,,2013-03-22 11:33:00,
2013-03-22 07:42:00,26.0,26.0,-100.00,NW,325,7.0,12.0,99,-99.99,,,-99.99,,2013-03-22 11:42:00,
2013-03-22 07:52:00,26.0,26.0,-100.00,NW,320,9.0,14.0,99,-99.99,,,-99.99,,2013-03-22 11:52:00,
2013-03-22 08:02:00,26.0,26.0,-100.00,NW,325,11.0,15.0,99,-99.99,,,-99.99,,2013-03-22 12:02:00,
2013-03-22 08:12:00,26.0,26.0,-100.00,NW,325,7.0,11.0,99,-99.99,,,-99.99,,2013-03-22 12:12:00,
2013-03-22 08:22:00,26.0,26.0,-100.00,NW,320,9.0,13.0,99,-99.99,,,-99.99,,2013-03-22 12:22:00,
2013-03-22 08:32:00,26.0,26.0,-100.00,North,0,7.0,12.0,99,-99.99,,,-99.99,,2013-03-22 12:32:00,
2013-03-22 08:42:00,26.0,26.0,-100.00,North,350,6.0,10.0,99,-99.99,,,-99.99,,2013-03-22 12:42:00,
2013-03-22 08:52:00,26.0,26.0,-100.00,NNW,340,10.0,17.0,99,-99.99,,,-99.99,,2013-03-22 12:52:00,
2013-03-22 09:02:00,26.0,25.0,-100.00,NW,320,12.0,17.0,98,-99.99,,,-99.99,,2013-03-22 13:02:00,
2013-03-22 09:12:00,26.0,25.0,-100.00,North,0,11.0,17.0,98,-99.99,,,-99.99,,2013-03-22 13:12:00,
2013-03-22 09:22:00,26.0,26.0,-100.00,North,0,7.0,14.0,99,-99.99,,,-99.99,,2013-03-22 13:22:00,
2013-03-22 09:32:00,26.0,26.0,-100.00,NNW,335,7.0,16.0,99,-99.99,,,-99.99,,2013-03-22 13:32:00,
2013-03-22 09:42:00,26.0,26.0,-100.00,NW,320,9.0,16.0,99,-99.99,,,-99.99,,2013-03-22 13:42:00,
2013-03-22 09:52:00,26.0,26.0,-100.00,North,350,9.0,16.0,98,-99.99,,,-99.99,,2013-03-22 13:52:00,
2013-03-22 10:03:00,26.0,26.0,-100.00,North,0,7.0,14.0,99,-99.99,,,-99.99,,2013-03-22 14:03:00,
2013-03-22 10:12:00,26.0,26.0,-100.00,NNW,340,9.0,15.0,99,-99.99,,,-99.99,,2013-03-22 14:12:00,
2013-03-22 10:22:00,26.0,26.0,-100.00,North,0,7.0,13.0,99,-99.99,,,-99.99,,2013-03-22 14:22:00,
2013-03-22 10:32:00,26.0,26.0,-100.00,NNW,335,7.0,14.0,99,-99.99,,,-99.99,,2013-03-22 14:32:00,
2013-03-22 10:42:00,26.0,26.0,-100.00,NW,305,9.0,12.0,99,-99.99,,,-99.99,,2013-03-22 14:42:00,
2013-03-22 10:52:00,27.0,26.0,-100.00,North,0,9.0,13.0,98,-99.99,,,-99.99,,2013-03-22 14:52:00,
2013-03-22 11:03:00,27.0,26.0,-100.00,NNW,335,7.0,15.0,96,-99.99,,,-99.99,,2013-03-22 15:03:00,
2013-03-22 11:12:00,27.0,26.0,-100.00,NNW,340,7.0,15.0,96,-99.99,,,-99.99,,2013-03-22 15:12:00,
2013-03-22 11:22:00,27.0,26.0,-100.00,NW,325,10.0,14.0,98,-99.99,,,-99.99,,2013-03-22 15:22:00,
2013-03-22 11:33:00,27.0,27.0,-100.00,NW,325,9.0,12.0,99,-99.99,,,-99.99,,2013-03-22 15:33:00,
2013-03-22 11:42:00,26.0,26.0,-100.00,NW,310,7.0,14.0,99,-99.99,,,-99.99,,2013-03-22 15:42:00,
2013-03-22 11:52:00,27.0,27.0,-100.00,NW,325,9.0,12.0,99,-99.99,,,-99.99,,2013-03-22 15:52:00,
2013-03-22 12:03:00,27.0,27.0,-100.00,NW,320,8.0,14.0,99,-99.99,,,-99.99,,2013-03-22 16:03:00,
2013-03-22 12:13:00,27.0,27.0,-100.00,NW,315,7.0,12.0,99,-99.99,,,-99.99,,2013-03-22 16:13:00,
2013-03-22 12:23:00,27.0,27.0,-100.00,NW,325,8.0,12.0,99,-99.99,,,-99.99,,2013-03-22 16:23:00,
2013-03-22 12:32:00,27.0,27.0,-100.00,NW,315,9.0,12.0,99,-99.99,,,-99.99,,2013-03-22 16:32:00,
2013-03-22 12:42:00,27.0,27.0,-100.00,NW,310,7.0,12.0,99,-99.99,,,-99.99,,2013-03-22 16:42:00,
2013-03-22 12:52:00,28.0,27.0,-100.00,NNW,335,7.0,12.0,99,-99.99,,,-99.99,,2013-03-22 16:52:00,
2013-03-22 13:03:00,28.0,27.0,-100.00,NNW,335,9.0,14.0,97,-99.99,,,-99.99,,2013-03-22 17:03:00,
2013-03-22 13:12:00,28.0,27.0,-100.00,NW,310,7.0,12.0,96,-99.99,,,-99.99,,2013-03-22 17:12:00,
2013-03-22 13:23:00,28.0,27.0,-100.00,NNW,330,9.0,13.0,96,-99.99,,,-99.99,,2013-03-22 17:23:00,
2013-03-22 13:32:00,28.0,27.0,-100.00,NNW,330,9.0,13.0,96,-99.99,,,-99.99,,2013-03-22 17:32:00,
2013-03-22 13:42:00,28.0,27.0,-100.00,North,0,7.0,13.0,96,-99.99,,,-99.99,,2013-03-22 17:42:00,
2013-03-22 13:52:00,28.0,27.0,-100.00,NNW,335,7.0,14.0,95,-99.99,,,-99.99,,2013-03-22 17:52:00,
2013-03-22 14:02:00,28.0,27.0,-100.00,NW,320,7.0,14.0,95,-99.99,,,-99.99,,2013-03-22 18:02:00,
2013-03-22 14:12:00,28.0,27.0,-100.00,NW,325,7.0,10.0,95,-99.99,,,-99.99,,2013-03-22 18:12:00,
2013-03-22 14:22:00,28.0,27.0,-100.00,North,0,7.0,13.0,96,-99.99,,,-99.99,,2013-03-22 18:22:00,
2013-03-22 14:33:00,29.0,28.0,-100.00,NNW,340,6.0,10.0,96,-99.99,,,-99.99,,2013-03-22 18:33:00,
2013-03-22 14:42:00,28.0,27.0,-100.00,NNW,330,9.0,14.0,96,-99.99,,,-99.99,,2013-03-22 18:42:00,
2013-03-22 14:52:00,28.0,28.0,-100.00,NW,305,6.0,12.0,97,-99.99,,,-99.99,,2013-03-22 18:52:00,
2013-03-22 15:02:00,28.0,28.0,-100.00,NW,325,9.0,14.0,99,-99.99,,,-99.99,,2013-03-22 19:02:00,
2013-03-22 15:12:00,28.0,28.0,-100.00,NW,305,6.0,12.0,99,-99.99,,,-99.99,,2013-03-22 19:12:00,
2013-03-22 15:22:00,28.0,28.0,-100.00,NNW,330,9.0,14.0,99,-99.99,,,-99.99,,2013-03-22 19:22:00,
2013-03-22 15:32:00,29.0,28.0,-100.00,NW,315,7.0,15.0,98,-99.99,,,-99.99,,2013-03-22 19:32:00,
2013-03-22 15:42:00,29.0,28.0,-100.00,NW,305,7.0,16.0,97,-99.99,,,-99.99,,2013-03-22 19:42:00,
2013-03-22 15:52:00,30.0,28.0,-100.00,WNW,295,10.0,16.0,94,-99.99,,,-99.99,,2013-03-22 19:52:00,
2013-03-22 16:02:00,30.0,28.0,-100.00,NW,325,7.0,14.0,92,-99.99,,,-99.99,,2013-03-22 20:02:00,
2013-03-22 16:12:00,29.0,27.0,-100.00,NW,315,10.0,16.0,89,-99.99,,,-99.99,,2013-03-22 20:12:00,
2013-03-22 16:22:00,30.0,27.0,-100.00,NW,315,8.0,15.0,87,-99.99,,,-99.99,,2013-03-22 20:22:00,
2013-03-22 16:32:00,31.0,27.0,-100.00,NW,325,10.0,16.0,85,-99.99,,,-99.99,,2013-03-22 20:32:00,
2013-03-22 16:43:00,31.0,27.0,-100.00,NW,305,5.0,12.0,85,-99.99,,,-99.99,,2013-03-22 20:43:00,
2013-03-22 16:52:00,31.0,27.0,-100.00,NNW,335,7.0,13.0,84,-99.99,,,-99.99,,2013-03-22 20:52:00,
2013-03-22 17:03:00,32.0,28.0,-100.00,NW,325,7.0,13.0,82,-99.99,,,-99.99,,2013-03-22 21:03:00,
2013-03-22 17:12:00,32.0,27.0,-100.00,NW,310,9.0,12.0,81,-99.99,,,-99.99,,2013-03-22 21:12:00,
2013-03-22 17:22:00,32.0,27.0,-100.00,NW,310,7.0,11.0,81,-99.99,,,-99.99,,2013-03-22 21:22:00,
2013-03-22 17:33:00,33.0,28.0,-100.00,WNW,300,7.0,12.0,80,-99.99,,,-99.99,,2013-03-22 21:33:00,
2013-03-22 17:43:00,33.0,28.0,-100.00,NW,320,4.0,11.0,81,-99.99,,,-99.99,,2013-03-22 21:43:00,
2013-03-22 17:53:00,33.0,28.0,-100.00,NW,320,4.0,11.0,81,-99.99,,,-99.99,,2013-03-22 21:53:00,
2013-03-22 18:03:00,33.0,28.0,-100.00,NW,310,7.0,11.0,81,-99.99,,,-99.99,,2013-03-22 22:03:00,
2013-03-22 18:12:00,33.0,27.0,-100.00,NNW,345,5.0,11.0,81,-99.99,,,-99.99,,2013-03-22 22:12:00,
2013-03-22 18:23:00,33.0,28.0,-100.00,NW,315,6.0,8.0,80,-99.99,,,-99.99,,2013-03-22 22:23:00,
2013-03-22 18:32:00,33.0,28.0,-100.00,NW,315,5.0,8.0,79,-99.99,,,-99.99,,2013-03-22 22:32:00,
2013-03-22 18:42:00,34.0,28.0,-100.00,NW,315,4.0,6.0,78,-99.99,,,-99.99,,2013-03-22 22:42:00,
2013-03-22 18:52:00,33.0,27.0,-100.00,NW,315,5.0,8.0,77,-99.99,,,-99.99,,2013-03-22 22:52:00,
2013-03-22 19:02:00,33.0,27.0,-100.00,NW,320,3.0,6.0,77,-99.99,,,-99.99,,2013-03-22 23:02:00,
2013-03-22 19:12:00,33.0,27.0,-100.00,NW,315,4.0,9.0,77,-99.99,,,-99.99,,2013-03-22 23:12:00,
2013-03-22 19:22:00,33.0,27.0,-100.00,NW,310,3.0,7.0,77,-99.99,,,-99.99,,2013-03-22 23:22:00,
2013-03-22 19:32:00,32.0,26.0,-100.00,NW,325,3.0,7.0,78,-99.99,,,-99.99,,2013-03-22 23:32:00,
2013-03-22 19:42:00,32.0,26.0,-100.00,North,0,2.0,6.0,79,-99.99,,,-99.99,,2013-03-22 23:42:00,
2013-03-22 19:52:00,31.0,26.0,-100.00,North,10,2.0,4.0,80,-99.99,,,-99.99,,2013-03-22 23:52:00,
2013-03-22 20:02:00,30.0,25.0,-100.00,North,10,2.0,3.0,81,-99.99,,,-99.99,,2013-03-23 00:02:00,
2013-03-22 20:12:00,30.0,25.0,-100.00,North,0,1.0,2.0,82,-99.99,,,-99.99,,2013-03-23 00:12:00,
2013-03-22 20:23:00,29.0,24.0,-100.00,NNW,340,0.0,2.0,83,-99.99,,,-99.99,,2013-03-23 00:23:00,
2013-03-22 20:33:00,28.0,24.0,-100.00,WNW,300,1.0,3.0,84,-99.99,,,-99.99,,2013-03-23 00:33:00,
2013-03-22 20:42:00,28.0,24.0,-100.00,WSW,255,1.0,2.0,85,-99.99,,,-99.99,,2013-03-23 00:42:00,
2013-03-22 20:52:00,28.0,24.0,-100.00,WSW,250,3.0,4.0,86,-99.99,,,-99.99,,2013-03-23 00:52:00,
2013-03-22 21:03:00,28.0,25.0,-100.00,West,260,2.0,4.0,87,-99.99,,,-99.99,,2013-03-23 01:03:00,
2013-03-22 21:12:00,28.0,24.0,-100.00,WSW,255,2.0,4.0,88,-99.99,,,-99.99,,2013-03-23 01:12:00,
2013-03-22 21:22:00,28.0,25.0,-100.00,WSW,240,2.0,4.0,89,-99.99,,,-99.99,,2013-03-23 01:22:00,
2013-03-22 21:32:00,27.0,25.0,-100.00,WSW,240,2.0,4.0,89,-99.99,,,-99.99,,2013-03-23 01:32:00,
2013-03-22 21:42:00,27.0,25.0,-100.00,WSW,240,1.0,3.0,90,-99.99,,,-99.99,,2013-03-23 01:42:00,
2013-03-22 21:52:00,27.0,25.0,-100.00,WSW,240,1.0,3.0,90,-99.99,,,-99.99,,2013-03-23 01:52:00,
2013-03-22 22:02:00,26.0,24.0,-100.00,West,265,1.0,3.0,91,-99.99,,,-99.99,,2013-03-23 02:02:00,
2013-03-22 22:12:00,25.0,23.0,-100.00,WSW,240,1.0,3.0,92,-99.99,,,-99.99,,2013-03-23 02:12:00,
2013-03-22 22:22:00,26.0,24.0,-100.00,WSW,245,2.0,3.0,92,-99.99,,,-99.99,,2013-03-23 02:22:00,
2013-03-22 22:32:00,26.0,25.0,-100.00,WSW,240,3.0,4.0,93,-99.99,,,-99.99,,2013-03-23 02:32:00,
2013-03-22 22:42:00,27.0,25.0,-100.00,WSW,240,3.0,4.0,93,-99.99,,,-99.99,,2013-03-23 02:42:00,
2013-03-22 22:52:00,26.0,25.0,-100.00,WSW,245,2.0,4.0,94,-99.99,,,-99.99,,2013-03-23 02:52:00,
2013-03-22 23:02:00,26.0,25.0,-100.00,WSW,245,3.0,3.0,94,-99.99,,,-99.99,,2013-03-23 03:02:00,
2013-03-22 23:12:00,26.0,25.0,-100.00,WSW,250,3.0,4.0,94,-99.99,,,-99.99,,2013-03-23 03:12:00,
2013-03-22 23:22:00,27.0,25.0,-100.00,WSW,250,2.0,4.0,94,-99.99,,,-99.99,,2013-03-23 03:22:00,
2013-03-22 23:33:00,26.0,24.0,-100.00,WSW,245,1.0,3.0,94,-99.99,,,-99.99,,2013-03-23 03:33:00,
2013-03-22 23:43:00,25.0,24.0,-100.00,WSW,250,1.0,2.0,95,-99.99,,,-99.99,,2013-03-23 03:43:00,
2013-03-22 23:53:00,25.0,24.0,-100.00,WSW,255,1.0,2.0,95,-99.99,,,-99.99,,2013-03-23 03:53:00,